• In Österreich
  • Länderverzeichnis
  • Für 7 Tage
  • Wassertemperatur
  • Satellitenkarten
  • Wetterkarte
  • News
  • Widgets
  • user-avatar
    Anmelden

    Stündliche Wetter Kijewice

    Heute, 17 Juli, Dienstag

    Zeit Temperatur Niederschläge Wind Luftdruck Luftfeuchtigkeit
    00:00 +19°C° 0,3 mm 2 m/S 755 mmHg 88%
    01:00 +19°C° 0 mm 2 m/S 755 mmHg 90%
    02:00 +19°C° 0,8 mm 2 m/S 755 mmHg 91%
    03:00 +19°C° 0,8 mm 2 m/S 755 mmHg 92%
    04:00 +18°C° 0,8 mm 2 m/S 755 mmHg 93%
    05:00 +19°C° 0,5 mm 3 m/S 755 mmHg 91%
    06:00 +19°C° 0,5 mm 3 m/S 755 mmHg 90%
    07:00 +20°C° 0,5 mm 3 m/S 755 mmHg 88%
    08:00 +20°C° 0,5 mm 3 m/S 755 mmHg 86%
    09:00 +21°C° 0,5 mm 4 m/S 755 mmHg 84%
    10:00 +21°C° 0,5 mm 4 m/S 754 mmHg 83%
    11:00 +21°C° 0,9 mm 4 m/S 754 mmHg 84%
    12:00 +21°C° 0,9 mm 4 m/S 754 mmHg 85%
    13:00 +21°C° 0,9 mm 4 m/S 754 mmHg 86%
    14:00 +21°C° 0,9 mm 4 m/S 754 mmHg 86%
    15:00 +21°C° 0,9 mm 4 m/S 754 mmHg 86%
    16:00 +21°C° 0,9 mm 4 m/S 754 mmHg 86%
    17:00 +21°C° 0,7 mm 4 m/S 754 mmHg 87%
    18:00 +21°C° 0,7 mm 4 m/S 754 mmHg 88%
    19:00 +20°C° 0,7 mm 4 m/S 754 mmHg 90%
    20:00 +20°C° 0,3 mm 3 m/S 754 mmHg 91%
    21:00 +20°C° 0,3 mm 3 m/S 754 mmHg 92%
    22:00 +19°C° 0,3 mm 3 m/S 754 mmHg 93%
    23:00 +19°C° 0,1 mm 3 m/S 754 mmHg 94%

    Morgen, 18 Juli, Mittwoch

    Zeit Temperatur Niederschläge Wind Luftdruck Luftfeuchtigkeit
    00:00 +19°C° 0,1 mm 3 m/S 754 mmHg 95%
    01:00 +19°C° 0,1 mm 3 m/S 754 mmHg 96%
    02:00 +19°C° 0,2 mm 4 m/S 754 mmHg 96%
    03:00 +19°C° 0,2 mm 4 m/S 754 mmHg 96%
    04:00 +19°C° 0,2 mm 4 m/S 754 mmHg 96%
    05:00 +19°C° 1,3 mm 4 m/S 754 mmHg 95%
    06:00 +19°C° 1,3 mm 5 m/S 754 mmHg 94%
    07:00 +20°C° 1,3 mm 5 m/S 754 mmHg 92%
    08:00 +20°C° 2,4 mm 5 m/S 755 mmHg 92%
    09:00 +20°C° 2,4 mm 5 m/S 755 mmHg 92%
    10:00 +20°C° 2,4 mm 5 m/S 755 mmHg 92%
    11:00 +20°C° 1,3 mm 5 m/S 755 mmHg 91%
    12:00 +20°C° 1,3 mm 5 m/S 755 mmHg 90%
    13:00 +21°C° 1,3 mm 5 m/S 756 mmHg 89%
    14:00 +21°C° 0,5 mm 5 m/S 756 mmHg 88%
    15:00 +21°C° 0,5 mm 4 m/S 756 mmHg 87%
    16:00 +22°C° 0,5 mm 4 m/S 756 mmHg 86%
    17:00 +21°C° 0,4 mm 4 m/S 756 mmHg 87%
    18:00 +21°C° 0,4 mm 4 m/S 756 mmHg 88%
    19:00 +20°C° 0,4 mm 4 m/S 756 mmHg 89%
    20:00 +20°C° 0,5 mm 3 m/S 757 mmHg 91%
    21:00 +19°C° 0,5 mm 3 m/S 757 mmHg 92%
    22:00 +19°C° 0,5 mm 3 m/S 757 mmHg 93%
    23:00 +19°C° 0,5 mm 3 m/S 757 mmHg 93%

    übermorgen, 19 Juli, Donnerstag

    Zeit Temperatur Niederschläge Wind Luftdruck Luftfeuchtigkeit
    00:00 +19°C° 0,5 mm 3 m/S 757 mmHg 93%
    01:00 +19°C° 0,5 mm 3 m/S 757 mmHg 92%
    02:00 +19°C° 0,3 mm 4 m/S 757 mmHg 92%
    03:00 +18°C° 0,3 mm 4 m/S 757 mmHg 92%
    04:00 +18°C° 0,3 mm 4 m/S 757 mmHg 92%
    05:00 +18°C° 0,1 mm 4 m/S 757 mmHg 91%
    06:00 +19°C° 0,1 mm 4 m/S 757 mmHg 90%
    07:00 +19°C° 0,1 mm 4 m/S 757 mmHg 89%
    08:00 +20°C° 0,3 mm 5 m/S 757 mmHg 86%
    09:00 +21°C° 0,3 mm 5 m/S 757 mmHg 83%
    10:00 +21°C° 0,3 mm 5 m/S 758 mmHg 80%
    11:00 +21°C° 0,5 mm 5 m/S 758 mmHg 81%
    12:00 +21°C° 0,5 mm 5 m/S 758 mmHg 82%
    13:00 +21°C° 0,5 mm 5 m/S 758 mmHg 83%
    14:00 +21°C° 0,1 mm 5 m/S 758 mmHg 83%
    15:00 +21°C° 0,1 mm 5 m/S 758 mmHg 84%
    16:00 +20°C° 0,1 mm 5 m/S 758 mmHg 84%
    17:00 +20°C° 0,1 mm 5 m/S 758 mmHg 86%
    18:00 +19°C° 0,1 mm 4 m/S 758 mmHg 88%
    19:00 +19°C° 0,1 mm 4 m/S 758 mmHg 89%
    20:00 +18°C° 0 mm 3 m/S 758 mmHg 90%
    21:00 +18°C° 0 mm 3 m/S 758 mmHg 91%
    22:00 +18°C° 0 mm 3 m/S 759 mmHg 91%
    23:00 +17°C° 0 mm 3 m/S 759 mmHg 91%

    20 Juli, Freitag

    Zeit Temperatur Niederschläge Wind Luftdruck Luftfeuchtigkeit
    00:00 +17°C° 0 mm 3 m/S 759 mmHg 91%
    01:00 +17°C° 0 mm 3 m/S 759 mmHg 90%
    02:00 +17°C° 0 mm 2 m/S 759 mmHg 90%
    03:00 +16°C° 0 mm 2 m/S 758 mmHg 90%
    04:00 +16°C° 0 mm 2 m/S 758 mmHg 90%
    05:00 +17°C° 0 mm 3 m/S 758 mmHg 87%
    06:00 +18°C° 0 mm 3 m/S 758 mmHg 83%
    07:00 +19°C° 0 mm 3 m/S 758 mmHg 80%
    08:00 +20°C° 0 mm 3 m/S 758 mmHg 73%
    09:00 +22°C° 0 mm 3 m/S 758 mmHg 66%
    10:00 +25°C° 0 mm 3 m/S 758 mmHg 59%
    11:00 +26°C° 0 mm 3 m/S 758 mmHg 57%
    12:00 +26°C° 0 mm 4 m/S 758 mmHg 55%
    13:00 +27°C° 0 mm 4 m/S 758 mmHg 54%
    14:00 +27°C° 0 mm 4 m/S 758 mmHg 54%
    15:00 +27°C° 0 mm 4 m/S 758 mmHg 54%
    16:00 +27°C° 0 mm 4 m/S 758 mmHg 54%
    17:00 +26°C° 0 mm 4 m/S 757 mmHg 58%
    18:00 +25°C° 0 mm 3 m/S 757 mmHg 63%
    19:00 +24°C° 0 mm 3 m/S 757 mmHg 67%
    20:00 +21°C° 0 mm 3 m/S 758 mmHg 71%
    21:00 +19°C° 0 mm 2 m/S 758 mmHg 74%
    22:00 +18°C° 0 mm 2 m/S 758 mmHg 78%
    23:00 +17°C° 0 mm 2 m/S 758 mmHg 76%

    21 Juli, Samstag

    Zeit Temperatur Niederschläge Wind Luftdruck Luftfeuchtigkeit
    00:00 +16°C° 0 mm 1 m/S 758 mmHg 75%
    01:00 +16°C° 0 mm 1 m/S 758 mmHg 74%
    02:00 +15°C° 0 mm 1 m/S 758 mmHg 75%
    03:00 +15°C° 0 mm 1 m/S 758 mmHg 75%
    04:00 +14°C° 0 mm 2 m/S 758 mmHg 76%
    05:00 +16°C° 0 mm 2 m/S 758 mmHg 73%
    06:00 +17°C° 0 mm 2 m/S 758 mmHg 70%
    07:00 +19°C° 0 mm 2 m/S 758 mmHg 67%
    08:00 +20°C° 0 mm 2 m/S 758 mmHg 61%
    09:00 +23°C° 0 mm 2 m/S 758 mmHg 56%
    10:00 +25°C° 0 mm 3 m/S 758 mmHg 50%
    11:00 +26°C° 0 mm 3 m/S 758 mmHg 48%
    12:00 +26°C° 0 mm 3 m/S 757 mmHg 46%
    13:00 +27°C° 0 mm 3 m/S 757 mmHg 44%
    14:00 +27°C° 0 mm 3 m/S 757 mmHg 45%
    15:00 +27°C° 0 mm 3 m/S 757 mmHg 47%
    16:00 +27°C° 0 mm 3 m/S 757 mmHg 48%
    17:00 +26°C° 0 mm 3 m/S 757 mmHg 54%
    18:00 +25°C° 0 mm 3 m/S 757 mmHg 59%
    19:00 +24°C° 0 mm 2 m/S 757 mmHg 64%
    20:00 +21°C° 0 mm 2 m/S 757 mmHg 69%
    21:00 +19°C° 0 mm 2 m/S 757 mmHg 74%
    22:00 +18°C° 0 mm 2 m/S 758 mmHg 79%
    23:00 +18°C° 0 mm 1 m/S 758 mmHg 79%

    22 Juli, Sonntag

    Zeit Temperatur Niederschläge Wind Luftdruck Luftfeuchtigkeit
    00:00 +18°C° 0 mm 1 m/S 758 mmHg 79%
    01:00 +16°C° 0 mm 1 m/S 758 mmHg 80%
    02:00 +16°C° 0 mm 1 m/S 758 mmHg 80%
    03:00 +16°C° 0 mm 1 m/S 758 mmHg 80%
    04:00 +16°C° 0 mm 1 m/S 758 mmHg 81%
    05:00 +18°C° 0 mm 1 m/S 758 mmHg 77%
    06:00 +19°C° 0 mm 1 m/S 758 mmHg 72%
    07:00 +21°C° 0 mm 1 m/S 758 mmHg 68%
    08:00 +21°C° 0 mm 2 m/S 758 mmHg 65%
    09:00 +23°C° 0 mm 2 m/S 758 mmHg 61%
    10:00 +24°C° 0 mm 2 m/S 758 mmHg 58%
    11:00 +25°C° 0,3 mm 3 m/S 758 mmHg 57%
    12:00 +26°C° 0,3 mm 3 m/S 758 mmHg 55%
    13:00 +26°C° 0,3 mm 3 m/S 758 mmHg 54%
    14:00 +26°C° 0,3 mm 3 m/S 757 mmHg 54%
    15:00 +26°C° 0,3 mm 3 m/S 757 mmHg 54%
    16:00 +26°C° 0,3 mm 3 m/S 757 mmHg 54%
    17:00 +25°C° 0 mm 3 m/S 757 mmHg 59%
    18:00 +24°C° 0 mm 3 m/S 758 mmHg 63%
    19:00 +23°C° 0 mm 2 m/S 758 mmHg 68%
    20:00 +21°C° 0 mm 2 m/S 758 mmHg 73%
    21:00 +20°C° 0 mm 2 m/S 758 mmHg 78%
    22:00 +19°C° 0 mm 1 m/S 759 mmHg 84%
    23:00 +19°C° 0 mm 1 m/S 759 mmHg 85%
    Mehr zeigen